Tracking 19651 objects as of 22-Apr-2019
HD Live streaming from Space Station
objects crossing your sky now

ZDPS 2B

Track ZDPS 2B now!
10-day predictions
ZDPS 2B is classified as:


NORAD ID: 40902
Int'l Code: 2015-049D
Perigee: 510.4 km
Apogee: 531.3 km
Inclination: 97.5 °
Period: 94.9 minutes
Semi major axis: 6891 km
RCS: Unknown
Launch date: September 19, 2015
Source: People's Republic of China (PRC)
Launch site: Taiyaun Space Center, China (TSC)
aabbcc
Your satellite tracking list
Your tracking list is empty




NASA's NSSDC Master Catalog

Two Line Element Set (TLE):
1 40902U 15049D   19112.20854422  .00001278  00000-0  67177-4 0  9995
2 40902  97.4538 116.4456 0015155  45.7955  84.7041 15.17401726198491
Source of the keplerian elements: AFSPC